[[{"header":{"parameterUnit":"m.s-1","parameterCategory":2,"la1":30.2992,"la2":30.254,"lo1":-89.0895,"lo2":-89.0443,"dy":0.0025,"dx":0.0025,"nx":19,"ny":19,"refTime":"2026-03-10T03:00:00:Z","depth":"0","parameterNumber":2,"parameterNumberName":"U-component_of_CURRENTS"},"data":[0,0,0,0.2062,0.2063,0.2117,0.2117,0.2188,0.2188,0,0,0,0,0,0,0,0,0,0,0,0.204,0.204,0.2062,0.2064,0.2117,0.2117,0.2187,0.2188,0,0,0,0,0,0,0,0,0,0,0,0.204,0.204,0.204,0.2064,0.2117,0.2117,0.2187,0.2146,0,0,0,0,0,0,0,0,0,0,0.2094,0.2076,0.204,0.204,0.2064,0.2117,0.2117,0.2144,0.2149,0.2165,0,0.2173,0,0.2186,0.2193,0.2193,0,0,0,0.2062,0.2072,0.2085,0.2041,0.2065,0.2117,0.2092,0.2147,0.2152,0.2171,0.2174,0.2177,0.2187,0.2194,0.2194,0.2297,0.2297,0,0,0.2059,0.2052,0.2082,0.2089,0.2079,0.209,0.2094,0.215,0.2156,0.2174,0.2179,0.2188,0.2194,0.2195,0.2296,0.2297,0,0,0,0.2052,0.205,0.2061,0.2085,0.2097,0.2092,0.2096,0.2154,0.2157,0.2179,0.2189,0.2195,0.2196,0.2296,0.2296,0.2283,0,0,0,0.205,0.2046,0.206,0.2057,0.2096,0.2127,0.2099,0.2153,0.216,0.2188,0.2195,0.2196,0.2295,0.2296,0.2282,0.2246,0,0,0,0.2037,0.2045,0.205,0.2056,0.2081,0.2126,0.2133,0.2155,0.2166,0.2194,0.2196,0.2294,0.2296,0.2281,0.2246,0.2248,0,0,0,0.2029,0.2054,0.205,0.2086,0.208,0.2139,0.2133,0.2181,0.2208,0.2195,0.2295,0.2296,0.2281,0.2246,0.2248,0.2272,0.2274,0,0,0.2058,0.2057,0.208,0.2078,0.2122,0.2131,0.2181,0.2211,0.2233,0.2275,0.2277,0.2283,0.2246,0.2248,0.235,0.235,0,0,0,0.2088,0.2096,0.2114,0.2134,0.2172,0.2181,0.2222,0.224,0.228,0.2256,0.2314,0.2291,0.2293,0.2309,0.2309,0.2186,0.2303,0.2302,0.2302,0.2106,0.2119,0.2142,0.2158,0.2188,0.2228,0.2245,0.2276,0.2308,0.2329,0.2305,0.2327,0.2347,0.2347,0.2221,0.235,0.235,0.235,0.235,0.212,0.2113,0.213,0.2151,0.2164,0.2198,0.2248,0.227,0.2307,0.2326,0.233,0.2324,0.2346,0.2212,0.235,0.235,0.235,0.235,0.235,0.2097,0.2088,0.2103,0.2108,0.2118,0.2157,0.2171,0.2217,0.2275,0.2284,0.2318,0.2319,0.2177,0.2299,0.2299,0.2299,0.2299,0.2299,0.2299,0.2046,0.2059,0.2054,0.2061,0.206,0.207,0.2123,0.2156,0.2233,0.2291,0.2292,0.2178,0.2311,0.2285,0.2297,0.2297,0.2298,0.2298,0.2298,0.1995,0.2007,0.2001,0.1999,0.1995,0.198,0.204,0.2122,0.2179,0.2218,0.2162,0.2307,0.2307,0.2308,0.2284,0.2294,0.2294,0.2294,0.2294,0.1959,0.1965,0.1961,0.1951,0.1937,0.1941,0.1952,0.2041,0.2105,0.2116,0.2089,0.2092,0.2098,0.2085,0.2091,0.2062,0.2015,0.2014,0.2014,0.1929,0.1941,0.193,0.1931,0.1914,0.1899,0.1881,0.1923,0.2012,0.1987,0.1906,0.1918,0.1908,0.1927,0.1898,0.1916,0.1867,0,0]},{"header":{"parameterUnit":"m.s-1","parameterCategory":2,"la1":30.2992,"la2":30.254,"lo1":-89.0895,"lo2":-89.0443,"dy":0.0025,"dx":0.0025,"nx":19,"ny":19,"refTime":"2026-03-10T03:00:00:Z","depth":"0","parameterNumber":3,"parameterNumberName":"V-component_of_CURRENTS"},"data":[0,0,0,0.0161,0.0163,0.0283,0.0284,0.0439,0.044,0,0,0,0,0,0,0,0,0,0,0,0.0117,0.0117,0.0161,0.0163,0.0283,0.0284,0.0439,0.044,0,0,0,0,0,0,0,0,0,0,0,0.0116,0.0117,0.0118,0.0164,0.0283,0.0284,0.0439,0.0351,0,0,0,0,0,0,0,0,0,0,0.0236,0.0176,0.0117,0.0118,0.0164,0.0283,0.0284,0.0347,0.0356,0.0381,0,0.039,0,0.0415,0.045,0.045,0,0,0,0.0177,0.0168,0.0212,0.0118,0.0165,0.0282,0.0233,0.0352,0.0363,0.0394,0.0393,0.0399,0.0417,0.045,0.0451,0.0545,0.0545,0,0,0.0171,0.0132,0.0204,0.0218,0.0185,0.0229,0.0236,0.0359,0.0358,0.0393,0.0402,0.042,0.0451,0.0452,0.0545,0.0545,0,0,0,0.0142,0.0127,0.0168,0.0211,0.0231,0.0232,0.0241,0.0353,0.0369,0.0404,0.0422,0.0452,0.0454,0.0545,0.0545,0.0489,0,0,0,0.0139,0.011,0.0165,0.0142,0.0228,0.0289,0.0231,0.0361,0.0376,0.0421,0.0452,0.0455,0.0545,0.0545,0.0491,0.0503,0,0,0,0.0113,0.0107,0.012,0.014,0.0188,0.0288,0.0312,0.0365,0.0386,0.045,0.0455,0.0545,0.0545,0.0492,0.0505,0.0595,0,0,0,0.0073,0.0088,0.0119,0.0142,0.0186,0.0255,0.0312,0.037,0.042,0.0453,0.0545,0.0545,0.0493,0.0505,0.0594,0.07,0.0712,0,0,0.0073,0.0086,0.0104,0.0135,0.0185,0.024,0.0287,0.0375,0.0429,0.0507,0.051,0.049,0.0505,0.0595,0.0699,0.0712,0,0,0,0.0093,0.0104,0.0125,0.016,0.0214,0.0262,0.0334,0.0369,0.0443,0.0457,0.0506,0.0518,0.0577,0.0638,0.0648,0.0644,0.0545,0.0545,0.0545,0.0045,0.0088,0.0118,0.0173,0.0208,0.0279,0.0327,0.0391,0.0425,0.0443,0.0482,0.0529,0.059,0.06,0.0591,0.0475,0.0475,0.0474,0.0474,0.0057,0.0087,0.0119,0.0167,0.021,0.025,0.0331,0.0362,0.0464,0.0452,0.0512,0.0587,0.0608,0.0595,0.0471,0.0472,0.0472,0.0472,0.0473,0.0044,0.0066,0.0094,0.0157,0.0199,0.0254,0.0358,0.0396,0.0453,0.0492,0.0648,0.065,0.0641,0.0544,0.0545,0.0545,0.0545,0.0546,0.0546,0.0027,0.0059,0.0108,0.0161,0.0208,0.0286,0.0393,0.0481,0.0602,0.0642,0.0644,0.0665,0.0553,0.0552,0.0552,0.0551,0.055,0.055,0.0549,0.0053,0.0064,0.0143,0.0194,0.0317,0.0446,0.0516,0.0713,0.0793,0.0874,0.083,0.0748,0.0806,0.0799,0.0806,0.0873,0.0873,0.0873,0.0873,0.0069,0.0079,0.0206,0.0308,0.0432,0.0537,0.0783,0.0929,0.0998,0.1019,0.0956,0.0916,0.0903,0.0963,0.0953,0.0961,0.1066,0.1066,0.1066,0.0108,0.0139,0.0244,0.0347,0.0494,0.067,0.0914,0.112,0.1155,0.1067,0.0927,0.0918,0.0846,0.0827,0.0907,0.0892,0.0902,0,0]}],[{"header":{"parameterUnit":"m.s-1","parameterCategory":2,"la1":30.2992,"la2":30.254,"lo1":-89.0895,"lo2":-89.0443,"dy":0.0025,"dx":0.0025,"nx":19,"ny":19,"refTime":"2026-03-10T03:00:00:Z","depth":"2","parameterNumber":2,"parameterNumberName":"U-component_of_CURRENTS"},"data":[0,0,0,0.1162,0.1164,0.1269,0.127,0.1374,0.1375,0,0,0,0,0,0,0,0,0,0,0,0.1132,0.1132,0.1162,0.1164,0.1269,0.127,0.1374,0.1375,0,0,0,0,0,0,0,0,0,0,0,0.1131,0.1132,0.1133,0.1164,0.1269,0.127,0.1374,0.1305,0,0,0,0,0,0,0,0,0,0,0.1208,0.1189,0.1132,0.1133,0.1165,0.1269,0.127,0.1302,0.1309,0.1315,0,0.1331,0,0.1347,0.138,0.1381,0,0,0,0.1176,0.1183,0.1199,0.1133,0.1165,0.1269,0.1225,0.1306,0.1314,0.1324,0.1333,0.1337,0.1349,0.1381,0.1381,0.1501,0.1502,0,0,0.117,0.1163,0.1194,0.1204,0.1193,0.1221,0.1228,0.1312,0.1326,0.1333,0.1339,0.1351,0.1381,0.1382,0.1501,0.1502,0,0,0,0.1145,0.1159,0.1175,0.12,0.1217,0.1224,0.1232,0.1323,0.1325,0.1341,0.1352,0.1382,0.1383,0.15,0.1501,0.1497,0,0,0,0.1142,0.1144,0.1172,0.1171,0.1215,0.1277,0.1241,0.132,0.1329,0.1352,0.1382,0.1384,0.1499,0.1501,0.1496,0.1488,0,0,0,0.1127,0.1143,0.1152,0.117,0.1208,0.1276,0.1285,0.1323,0.1335,0.1381,0.1384,0.1499,0.15,0.1494,0.1486,0.1538,0,0,0,0.112,0.1151,0.1152,0.1195,0.1207,0.127,0.1284,0.1349,0.1391,0.1382,0.1499,0.1501,0.1494,0.1485,0.1536,0.1475,0.1478,0,0,0.1154,0.1156,0.118,0.1182,0.1229,0.1256,0.1323,0.1386,0.1419,0.1469,0.1473,0.1496,0.1486,0.1538,0.1575,0.1575,0,0,0,0.1187,0.1202,0.1218,0.1247,0.1281,0.132,0.1378,0.1412,0.1488,0.1449,0.1533,0.1527,0.1559,0.152,0.1521,0.1509,0.1509,0.1509,0.1509,0.1216,0.1228,0.1262,0.1283,0.1319,0.1378,0.1423,0.1483,0.1506,0.1552,0.1551,0.1623,0.1582,0.1582,0.1586,0.1586,0.1586,0.1586,0.1586,0.1249,0.1258,0.128,0.1322,0.1348,0.1405,0.1471,0.1506,0.1592,0.159,0.1622,0.1551,0.1582,0.1587,0.1587,0.1587,0.1587,0.1586,0.1586,0.1259,0.1257,0.1294,0.1328,0.1375,0.1423,0.1476,0.1532,0.1598,0.1627,0.1627,0.1625,0.1612,0.1664,0.1665,0.1665,0.1665,0.1665,0.1665,0.1236,0.1263,0.1293,0.1332,0.1362,0.1407,0.1491,0.1544,0.1608,0.1627,0.1628,0.165,0.1648,0.1619,0.1669,0.1668,0.1668,0.1667,0.1667,0.1223,0.1238,0.1278,0.1311,0.1358,0.1361,0.1445,0.1523,0.1601,0.1624,0.1637,0.1637,0.1638,0.1636,0.1609,0.1653,0.1653,0.1653,0.1653,0.12,0.121,0.1263,0.13,0.1324,0.1341,0.1342,0.1323,0.1408,0.14,0.141,0.1348,0.1355,0.1337,0.1342,0.1307,0.1273,0.1272,0.1271,0.1175,0.1201,0.1235,0.1283,0.1309,0.1299,0.124,0.1077,0.1075,0.1249,0.1278,0.164,0.1576,0.1576,0.157,0.157,0.1523,0,0]},{"header":{"parameterUnit":"m.s-1","parameterCategory":2,"la1":30.2992,"la2":30.254,"lo1":-89.0895,"lo2":-89.0443,"dy":0.0025,"dx":0.0025,"nx":19,"ny":19,"refTime":"2026-03-10T03:00:00:Z","depth":"2","parameterNumber":3,"parameterNumberName":"V-component_of_CURRENTS"},"data":[0,0,0,-0.019,-0.019,-0.0192,-0.0193,-0.0186,-0.0185,0,0,0,0,0,0,0,0,0,0,0,-0.0196,-0.0196,-0.019,-0.019,-0.0192,-0.0193,-0.0186,-0.0185,0,0,0,0,0,0,0,0,0,0,0,-0.0197,-0.0196,-0.0196,-0.019,-0.0192,-0.0193,-0.0186,-0.0189,0,0,0,0,0,0,0,0,0,0,-0.0188,-0.0202,-0.0196,-0.0196,-0.019,-0.0192,-0.0193,-0.0189,-0.0188,-0.0178,0,-0.0178,0,-0.0173,-0.0184,-0.0184,0,0,0,-0.02,-0.0202,-0.019,-0.0196,-0.0189,-0.0192,-0.0194,-0.0189,-0.0188,-0.0178,-0.0178,-0.0177,-0.0173,-0.0184,-0.0184,-0.0115,-0.0114,0,0,-0.0199,-0.0209,-0.0191,-0.019,-0.0188,-0.0194,-0.0194,-0.0189,-0.0194,-0.0178,-0.0177,-0.0173,-0.0184,-0.0183,-0.0115,-0.0114,0,0,0,-0.0192,-0.0209,-0.0198,-0.019,-0.0187,-0.0194,-0.0194,-0.0195,-0.0188,-0.0177,-0.0173,-0.0183,-0.0183,-0.0116,-0.0115,-0.0069,0,0,0,-0.0193,-0.0204,-0.0198,-0.0206,-0.0187,-0.0194,-0.02,-0.0189,-0.0187,-0.0173,-0.0183,-0.0183,-0.0116,-0.0115,-0.0072,-0.0056,0,0,0,-0.0197,-0.0205,-0.0202,-0.0206,-0.02,-0.0194,-0.0187,-0.0189,-0.0184,-0.0184,-0.0183,-0.0117,-0.0116,-0.0074,-0.006,-0.0016,0,0,0,-0.0211,-0.019,-0.0202,-0.0173,-0.02,-0.0155,-0.0188,-0.0173,-0.017,-0.0183,-0.0116,-0.0115,-0.0075,-0.0062,-0.0019,0.0143,0.0167,0,0,-0.0184,-0.0187,-0.0165,-0.0174,-0.0118,-0.0156,-0.0098,-0.0119,-0.0144,-0.0121,-0.0119,-0.0071,-0.006,-0.0017,0.0221,0.0244,0,0,0,-0.0154,-0.0141,-0.0124,-0.0101,-0.0078,-0.0058,-0.0073,-0.007,-0.0068,-0.0134,-0.0056,-0.005,-0.0024,0.0068,0.0086,-0.0109,-0.0109,-0.0109,-0.0109,-0.0131,-0.0107,-0.0065,-0.0034,-0.0011,0.0012,0.0032,0.0031,-0.0006,0.0004,-0.0002,0.0077,0.0178,0.0193,0.0013,0.0014,0.0014,0.0014,0.0014,-0.0074,-0.0049,-0.0025,0.0013,0.004,0.0067,0.0114,0.0099,0.0129,0.0075,0.0098,0.0126,0.0216,0.0018,0.0017,0.0017,0.0016,0.0016,0.0016,-0.0059,-0.0045,-0.0032,0.0019,0.0051,0.0078,0.0148,0.0148,0.0156,0.0182,0.0267,0.0268,0.0099,0.0178,0.0178,0.0179,0.0179,0.0179,0.0179,-0.0062,-0.0037,-0.0012,0.0023,0.0043,0.0083,0.0145,0.0215,0.0311,0.0336,0.0337,0.0133,0.0127,0.0109,0.0184,0.0183,0.0182,0.0182,0.0182,-0.0042,-0.0043,0.001,0.0033,0.0103,0.0236,0.0276,0.0497,0.0525,0.0637,0.0444,0.0437,0.0438,0.0425,0.0415,0.0564,0.0564,0.0564,0.0564,-0.0037,-0.0029,0.0045,0.0109,0.02,0.0317,0.0628,0.0759,0.0769,0.0683,0.0676,0.0671,0.0655,0.0664,0.0646,0.0637,0.0845,0.0845,0.0844,-0.0016,0.001,0.0067,0.0137,0.025,0.0465,0.0822,0.0975,0.084,0.0844,0.0605,0.0606,0.0582,0.0563,0.056,0.0537,0.0517,0,0]}],[{"header":{"parameterUnit":"m.s-1","parameterCategory":2,"la1":30.2992,"la2":30.254,"lo1":-89.0895,"lo2":-89.0443,"dy":0.0025,"dx":0.0025,"nx":19,"ny":19,"refTime":"2026-03-10T03:00:00:Z","depth":"4","parameterNumber":2,"parameterNumberName":"U-component_of_CURRENTS"},"data":[0,0,0,0.0152,0.0153,0.0216,0.0217,0.0325,0.0326,0,0,0,0,0,0,0,0,0,0,0,0.0129,0.013,0.0152,0.0153,0.0216,0.0217,0.0324,0.0326,0,0,0,0,0,0,0,0,0,0,0,0.0129,0.013,0.013,0.0154,0.0216,0.0217,0.0324,0.0271,0,0,0,0,0,0,0,0,0,0,0.0207,0.0172,0.013,0.013,0.0154,0.0216,0.0217,0.0268,0.0274,0.0303,0,0.031,0,0.0321,0.0333,0.0334,0,0,0,0.0157,0.0167,0.0192,0.013,0.0155,0.0216,0.0189,0.0271,0.0278,0.0311,0.0312,0.0316,0.0322,0.0334,0.0334,0.0444,0.0444,0,0,0.0154,0.0136,0.0187,0.0196,0.0169,0.0187,0.0191,0.0275,0.0278,0.0312,0.0318,0.0324,0.0335,0.0336,0.0444,0.0444,0,0,0,0.0141,0.0133,0.0156,0.0192,0.0201,0.0189,0.0193,0.0274,0.0284,0.0319,0.0325,0.0335,0.0337,0.0443,0.0444,0.0469,0,0,0,0.0139,0.0126,0.0154,0.0143,0.0199,0.0232,0.019,0.0278,0.0287,0.0325,0.0335,0.0338,0.0443,0.0444,0.0468,0.0467,0,0,0,0.0127,0.0124,0.0133,0.0142,0.0169,0.0231,0.0246,0.028,0.0291,0.0334,0.0338,0.0443,0.0444,0.0466,0.0465,0.0519,0,0,0,0.0105,0.0112,0.0132,0.0147,0.0168,0.0217,0.0245,0.0304,0.0343,0.0336,0.0443,0.0444,0.0466,0.0464,0.0517,0.0418,0,0,0,0.0102,0.0111,0.0123,0.0142,0.0181,0.0209,0.0257,0.0331,0.0363,0.0417,0.042,0.0468,0.0465,0.0518,0.0469,0,0,0,0,0.0115,0.0121,0.0137,0.0165,0.0206,0.0266,0.0316,0.0348,0.0429,0.0389,0.0478,0.0476,0.0509,0.0446,0.0448,0.0448,0.0448,0.0448,0.0448,0.0069,0.0107,0.0133,0.019,0.023,0.031,0.0362,0.0418,0.0439,0.0489,0.0505,0.057,0.0505,0.052,0.052,0.052,0.052,0.052,0.052,0.0066,0.0094,0.0142,0.0186,0.026,0.0311,0.042,0.0463,0.0541,0.0536,0.0568,0.0485,0.0523,0.0523,0.0522,0.0522,0.0522,0.0521,0.0521,0.0043,0.0069,0.0096,0.0171,0.0247,0.0339,0.0432,0.0513,0.0572,0.0606,0.057,0.0598,0.0588,0.0641,0.0642,0.0642,0.0642,0.0642,0.0642,0.0023,0.0054,0.0086,0.0167,0.0213,0.0311,0.046,0.0515,0.0595,0.0586,0.0627,0.0611,0.0608,0.0596,0.0646,0.0645,0.0645,0.0645,0.0644,0.0025,0.0033,0.0075,0.0113,0.0214,0.0274,0.042,0.0521,0.0581,0.0588,0.0585,0.0587,0.0573,0.0571,0.0557,0.0598,0.0597,0.0596,0,0.0017,0.0028,0.0066,0.0106,0.0168,0.0257,0.0334,0.0414,0.0492,0.0476,0.0552,0.0544,0.0546,0.0524,0.052,0.05,0,0,0,0.0018,0.0029,0.0042,0.008,0.0141,0.024,0.035,0.0378,0.048,0.0507,0.0569,0.0576,0.0576,0.0657,0.0641,0.0636,0.0618,0,0]},{"header":{"parameterUnit":"m.s-1","parameterCategory":2,"la1":30.2992,"la2":30.254,"lo1":-89.0895,"lo2":-89.0443,"dy":0.0025,"dx":0.0025,"nx":19,"ny":19,"refTime":"2026-03-10T03:00:00:Z","depth":"4","parameterNumber":3,"parameterNumberName":"V-component_of_CURRENTS"},"data":[0,0,0,0.0269,0.0269,0.0253,0.0253,0.0191,0.019,0,0,0,0,0,0,0,0,0,0,0,0.0278,0.0278,0.0269,0.0269,0.0253,0.0253,0.0191,0.019,0,0,0,0,0,0,0,0,0,0,0,0.0278,0.0278,0.0278,0.0269,0.0253,0.0253,0.0191,0.0213,0,0,0,0,0,0,0,0,0,0,0.0233,0.0253,0.0278,0.0278,0.0269,0.0253,0.0253,0.0214,0.0211,0.0187,0,0.0191,0,0.0188,0.0185,0.0185,0,0,0,0.0266,0.0256,0.0247,0.0278,0.0269,0.0253,0.0259,0.0213,0.021,0.0184,0.019,0.0188,0.0187,0.0185,0.0185,0.0175,0.0175,0,0,0.0267,0.0277,0.0249,0.0245,0.0271,0.026,0.0259,0.0212,0.0212,0.0189,0.0186,0.0186,0.0185,0.0184,0.0174,0.0175,0,0,0,0.0272,0.0277,0.027,0.0247,0.0247,0.0259,0.0258,0.0215,0.0211,0.0186,0.0185,0.0184,0.0183,0.0174,0.0175,0.0241,0,0,0,0.0272,0.028,0.0271,0.0276,0.0248,0.0237,0.0263,0.0215,0.0209,0.0185,0.0184,0.0183,0.0173,0.0174,0.0238,0.0255,0,0,0,0.0278,0.0281,0.028,0.0277,0.0271,0.0238,0.0232,0.0214,0.0208,0.0185,0.0182,0.0173,0.0174,0.0236,0.0251,0.0257,0,0,0,0.0286,0.0301,0.028,0.0298,0.0271,0.0282,0.0233,0.0233,0.022,0.0184,0.0173,0.0174,0.0235,0.0249,0.0255,0.0239,0,0,0,0.0312,0.0305,0.0316,0.0296,0.0316,0.0283,0.0304,0.0262,0.0225,0.0184,0.0184,0.0239,0.0251,0.0256,0.0299,0,0,0,0,0.0328,0.0336,0.0339,0.0344,0.034,0.0342,0.0308,0.029,0.0267,0.0222,0.0241,0.0246,0.0247,0.0233,0.0179,0.0179,0.0179,0.0179,0.0179,0.0366,0.0365,0.0386,0.0387,0.0394,0.0381,0.0376,0.0345,0.0308,0.0313,0.0303,0.0354,0.0344,0.0311,0.0311,0.0311,0.0312,0.0312,0.0312,0.0402,0.0414,0.0418,0.0441,0.0443,0.0458,0.0437,0.0417,0.0392,0.0363,0.0361,0.0308,0.0319,0.0317,0.0316,0.0316,0.0315,0.0315,0.0314,0.042,0.0428,0.0444,0.0478,0.051,0.0514,0.0527,0.0503,0.045,0.0449,0.041,0.0387,0.0376,0.0448,0.0448,0.0448,0.0449,0.0449,0.0449,0.0431,0.0447,0.0481,0.0523,0.0555,0.0585,0.0587,0.056,0.0513,0.0472,0.0463,0.0399,0.0395,0.0383,0.0451,0.045,0.045,0.045,0.045,0.0446,0.0462,0.0506,0.0544,0.0613,0.0623,0.0643,0.0587,0.0556,0.0503,0.0473,0.0471,0.0435,0.043,0.0417,0.0498,0.0498,0.0498,0,0.0455,0.0468,0.0524,0.0583,0.0623,0.0646,0.0614,0.058,0.0515,0.0514,0.0516,0.0483,0.0481,0.044,0.0435,0.0422,0,0,0,0.046,0.0473,0.0515,0.0581,0.063,0.0601,0.0597,0.0577,0.0546,0.0508,0.0499,0.0498,0.047,0.0456,0.0397,0.0391,0.0368,0,0]}]]